Wetterdaten: Woche 22.11.10 - 28.11.10 (KW47)
Datum Zeit Temp. Innen Temp. Aussen UV X Diff Temp. Feuchte Inne Feuchte Auss Sonnenschein Luftdruck Regen ab 0,1 Wind Sonnenschein T Regendauer Windben
22.11.2010 00:00 14,7 C 4,8 C 0,0 UV-I 0,0 C 51 % 91 % 0 % 1006,2 hPa 0,0 l/m 5,4 km/h (1 Bft) 0,00 h 0,00 h 6,5 km/h (2 Bft)
22.11.2010 01:00 14,6 C 4,7 C 0,0 UV-I 0,0 C 51 % 91 % 0 % 1005,6 hPa 0,0 l/m 6,4 km/h (2 Bft) 0,00 h 0,00 h 6,5 km/h (2 Bft)
22.11.2010 02:00 14,6 C 4,6 C 0,0 UV-I 0,0 C 50 % 90 % 0 % 1005,3 hPa 0,0 l/m 5,9 km/h (2 Bft) 0,00 h 0,00 h 6,9 km/h (2 Bft)
22.11.2010 03:00 14,6 C 4,5 C 0,0 UV-I 0,0 C 50 % 90 % 0 % 1004,9 hPa 0,0 l/m 7,9 km/h (2 Bft) 0,00 h 0,00 h 8,2 km/h (2 Bft)
22.11.2010 04:00 14,4 C 4,4 C 0,0 UV-I 0,0 C 49 % 89 % 0 % 1004,7 hPa 0,0 l/m 8,2 km/h (2 Bft) 0,00 h 0,00 h 8,0 km/h (2 Bft)
22.11.2010 05:00 14,4 C 4,5 C 0,0 UV-I 0,0 C 49 % 90 % 0 % 1004,8 hPa 0,0 l/m 5,3 km/h (1 Bft) 0,00 h 0,00 h 6,4 km/h (2 Bft)
22.11.2010 06:00 14,4 C 4,5 C 0,0 UV-I 0,0 C 49 % 89 % 0 % 1004,3 hPa 0,0 l/m 7,3 km/h (2 Bft) 0,00 h 0,00 h 8,8 km/h (2 Bft)
22.11.2010 07:00 14,4 C 4,7 C 0,1 UV-I 0,0 C 49 % 88 % 0 % 1003,7 hPa 0,0 l/m 10,5 km/h (2 Bft) 0,00 h 0,00 h 12,4 km/h (3 Bft)
22.11.2010 08:00 14,4 C 4,6 C 2,5 UV-I 0,0 C 52 % 89 % 0 % 1003,8 hPa 0,0 l/m 9,3 km/h (2 Bft) 0,00 h 0,00 h 10,1 km/h (2 Bft)
22.11.2010 09:00 14,5 C 4,7 C 3,6 UV-I 0,0 C 54 % 88 % 0 % 1003,7 hPa 0,0 l/m 8,6 km/h (2 Bft) 0,00 h 0,00 h 8,7 km/h (2 Bft)
22.11.2010 10:00 14,6 C 4,7 C 4,7 UV-I 0,0 C 53 % 86 % 0 % 1003,7 hPa 0,0 l/m 10,5 km/h (2 Bft) 0,00 h 0,00 h 10,1 km/h (2 Bft)
22.11.2010 11:00 14,6 C 4,9 C 4,4 UV-I 0,0 C 52 % 86 % 0 % 1003,7 hPa 0,0 l/m 10,7 km/h (2 Bft) 0,00 h 0,00 h 10,3 km/h (2 Bft)
22.11.2010 12:00 14,7 C 5,4 C 4,3 UV-I 0,0 C 52 % 84 % 0 % 1003,4 hPa 0,0 l/m 13,2 km/h (3 Bft) 0,00 h 0,00 h 13,4 km/h (3 Bft)
22.11.2010 13:00 14,8 C 5,8 C 0,8 UV-I 0,0 C 52 % 81 % 0 % 1003,0 hPa 0,0 l/m 17,7 km/h (3 Bft) 0,00 h 0,00 h 19,2 km/h (3 Bft)
22.11.2010 14:00 14,9 C 6,0 C 0,3 UV-I 0,0 C 52 % 79 % 0 % 1002,9 hPa 0,0 l/m 16,2 km/h (3 Bft) 0,00 h 0,00 h 15,3 km/h (3 Bft)
22.11.2010 15:00 15,1 C 6,1 C 0,1 UV-I 0,0 C 50 % 78 % 0 % 1002,7 hPa 0,0 l/m 17,1 km/h (3 Bft) 0,00 h 0,00 h 17,7 km/h (3 Bft)
22.11.2010 16:00 14,9 C 5,6 C 0,0 UV-I 0,0 C 50 % 79 % 0 % 1002,5 hPa 0,0 l/m 13,2 km/h (3 Bft) 0,00 h 0,00 h 14,0 km/h (3 Bft)
22.11.2010 17:00 14,6 C 5,0 C 0,0 UV-I 0,0 C 51 % 83 % 0 % 1002,3 hPa 0,0 l/m 10,5 km/h (2 Bft) 0,00 h 0,00 h 10,3 km/h (2 Bft)
22.11.2010 18:00 14,4 C 5,0 C 0,0 UV-I 0,0 C 51 % 85 % 0 % 1002,5 hPa 0,0 l/m 9,1 km/h (2 Bft) 0,00 h 0,00 h 10,0 km/h (2 Bft)
22.11.2010 19:00 14,4 C 5,1 C 0,0 UV-I 0,0 C 51 % 85 % 0 % 1002,6 hPa 0,0 l/m 8,5 km/h (2 Bft) 0,00 h 0,00 h 8,3 km/h (2 Bft)
22.11.2010 20:00 14,4 C 5,2 C 0,0 UV-I 0,0 C 51 % 86 % 0 % 1002,8 hPa 0,0 l/m 9,2 km/h (2 Bft) 0,00 h 0,00 h 10,6 km/h (2 Bft)
22.11.2010 21:00 14,3 C 4,9 C 0,0 UV-I 0,0 C 51 % 85 % 0 % 1003,0 hPa 0,0 l/m 10,3 km/h (2 Bft) 0,00 h 0,00 h 11,2 km/h (2 Bft)
22.11.2010 22:00 14,2 C 4,8 C 0,0 UV-I 0,0 C 51 % 84 % 0 % 1003,1 hPa 0,0 l/m 8,7 km/h (2 Bft) 0,00 h 0,00 h 9,1 km/h (2 Bft)
22.11.2010 23:00 14,3 C 4,1 C 0,0 UV-I 0,0 C 51 % 88 % 0 % 1003,4 hPa 0,0 l/m 8,7 km/h (2 Bft) 0,00 h 0,00 h 8,4 km/h (2 Bft)
23.11.2010 00:00 14,2 C 3,5 C 0,0 UV-I 0,0 C 51 % 90 % 0 % 1003,4 hPa 0,0 l/m 1,9 km/h (1 Bft) 0,00 h 0,00 h 2,0 km/h (1 Bft)
23.11.2010 01:00 14,2 C 3,6 C 0,0 UV-I 0,0 C 51 % 90 % 0 % 1003,3 hPa 0,0 l/m 1,0 km/h (0 Bft) 0,00 h 0,00 h 1,7 km/h (1 Bft)
23.11.2010 02:00 14,1 C 3,9 C 0,0 UV-I 0,0 C 51 % 91 % 0 % 1003,3 hPa 0,0 l/m 1,2 km/h (1 Bft) 0,00 h 0,07 h 1,7 km/h (1 Bft)
23.11.2010 03:00 14,1 C 4,0 C 0,0 UV-I 0,0 C 52 % 91 % 0 % 1003,5 hPa 0,0 l/m 1,6 km/h (1 Bft) 0,00 h 0,00 h 2,0 km/h (1 Bft)
23.11.2010 04:00 14,1 C 4,0 C 0,0 UV-I 0,0 C 52 % 91 % 0 % 1003,7 hPa 0,0 l/m 1,3 km/h (1 Bft) 0,00 h 0,10 h 1,8 km/h (1 Bft)
23.11.2010 05:00 14,1 C 4,0 C 0,0 UV-I 0,0 C 52 % 92 % 0 % 1003,5 hPa 0,0 l/m 1,3 km/h (1 Bft) 0,00 h 0,07 h 1,9 km/h (1 Bft)
23.11.2010 06:00 13,9 C 4,0 C 0,0 UV-I 0,0 C 52 % 92 % 0 % 1003,5 hPa 0,0 l/m 1,8 km/h (1 Bft) 0,00 h 0,53 h 2,9 km/h (1 Bft)
23.11.2010 07:00 14,0 C 4,0 C 0,0 UV-I 0,0 C 52 % 92 % 0 % 1003,8 hPa 0,2 l/m 1,5 km/h (1 Bft) 0,00 h 0,80 h 0,9 km/h (0 Bft)
23.11.2010 08:00 14,0 C 4,0 C 0,0 UV-I 0,0 C 52 % 93 % 0 % 1003,8 hPa 0,0 l/m 1,4 km/h (1 Bft) 0,00 h 0,03 h 2,3 km/h (1 Bft)
23.11.2010 09:00 14,0 C 4,4 C 0,0 UV-I 0,0 C 53 % 92 % 0 % 1003,9 hPa 0,0 l/m 3,5 km/h (1 Bft) 0,00 h 0,00 h 5,5 km/h (1 Bft)
23.11.2010 10:00 13,8 C 4,9 C 0,2 UV-I 0,3 C 53 % 93 % 7 % 1004,0 hPa 0,0 l/m 5,2 km/h (1 Bft) 0,00 h 0,00 h 8,2 km/h (2 Bft)
23.11.2010 11:00 13,4 C 5,5 C 0,0 UV-I 0,5 C 53 % 91 % 14 % 1004,1 hPa 0,0 l/m 6,4 km/h (2 Bft) 0,00 h 0,17 h 10,1 km/h (2 Bft)
23.11.2010 12:00 13,7 C 5,4 C 0,0 UV-I 0,0 C 53 % 91 % 0 % 1003,8 hPa 0,1 l/m 7,1 km/h (2 Bft) 0,00 h 0,67 h 8,2 km/h (2 Bft)
23.11.2010 13:00 13,9 C 5,5 C 0,0 UV-I 0,0 C 53 % 91 % 0 % 1003,7 hPa 0,0 l/m 6,8 km/h (2 Bft) 0,00 h 0,07 h 8,5 km/h (2 Bft)
23.11.2010 14:00 14,1 C 6,0 C 0,0 UV-I 0,2 C 53 % 91 % 6 % 1003,6 hPa 0,0 l/m 6,3 km/h (2 Bft) 0,00 h 0,07 h 7,6 km/h (2 Bft)
23.11.2010 15:00 14,2 C 6,1 C 0,0 UV-I 0,1 C 53 % 88 % 3 % 1003,5 hPa 0,0 l/m 7,0 km/h (2 Bft) 0,00 h 0,37 h 8,0 km/h (2 Bft)
23.11.2010 16:00 14,2 C 6,0 C 0,0 UV-I 0,0 C 53 % 88 % 0 % 1003,7 hPa 0,0 l/m 4,9 km/h (1 Bft) 0,00 h 0,07 h 6,2 km/h (2 Bft)
23.11.2010 17:00 14,0 C 5,8 C 0,0 UV-I 0,0 C 53 % 87 % 0 % 1003,8 hPa 0,1 l/m 4,8 km/h (1 Bft) 0,00 h 0,30 h 6,3 km/h (2 Bft)
23.11.2010 18:00 13,9 C 5,5 C 0,0 UV-I 0,0 C 53 % 88 % 0 % 1003,9 hPa 0,0 l/m 5,9 km/h (2 Bft) 0,00 h 0,00 h 7,0 km/h (2 Bft)
23.11.2010 19:00 13,8 C 5,2 C 0,0 UV-I 0,0 C 53 % 89 % 0 % 1004,1 hPa 0,0 l/m 6,5 km/h (2 Bft) 0,00 h 0,10 h 7,1 km/h (2 Bft)
23.11.2010 20:00 13,6 C 4,9 C 0,0 UV-I 0,0 C 53 % 89 % 0 % 1004,1 hPa 0,0 l/m 6,2 km/h (2 Bft) 0,00 h 0,00 h 6,1 km/h (2 Bft)
23.11.2010 21:00 13,6 C 4,9 C 0,0 UV-I 0,0 C 53 % 89 % 0 % 1004,2 hPa 0,0 l/m 5,2 km/h (1 Bft) 0,00 h 0,00 h 7,0 km/h (2 Bft)
23.11.2010 22:00 13,7 C 5,1 C 0,0 UV-I 0,0 C 53 % 88 % 0 % 1004,6 hPa 0,0 l/m 4,7 km/h (1 Bft) 0,00 h 0,00 h 5,8 km/h (2 Bft)
23.11.2010 23:00 13,6 C 4,9 C 0,0 UV-I 0,0 C 52 % 89 % 0 % 1004,6 hPa 0,0 l/m 4,3 km/h (1 Bft) 0,00 h 0,00 h 4,8 km/h (1 Bft)
24.11.2010 00:00 13,7 C 4,9 C 0,0 UV-I 0,0 C 53 % 89 % 0 % 1004,6 hPa 0,0 l/m 4,0 km/h (1 Bft) 0,00 h 0,00 h 5,6 km/h (1 Bft)
24.11.2010 01:00 13,6 C 4,8 C 0,0 UV-I 0,0 C 53 % 91 % 0 % 1004,5 hPa 0,0 l/m 2,7 km/h (1 Bft) 0,00 h 0,03 h 4,0 km/h (1 Bft)
24.11.2010 02:00 13,6 C 4,7 C 0,0 UV-I 0,0 C 53 % 91 % 0 % 1004,5 hPa 0,0 l/m 2,1 km/h (1 Bft) 0,00 h 0,47 h 1,9 km/h (1 Bft)
24.11.2010 03:00 13,6 C 4,7 C 0,0 UV-I 0,0 C 53 % 92 % 0 % 1004,1 hPa 0,0 l/m 1,5 km/h (1 Bft) 0,00 h 0,13 h 2,8 km/h (1 Bft)
24.11.2010 04:00 13,6 C 4,7 C 0,0 UV-I 0,0 C 54 % 92 % 0 % 1003,9 hPa 0,0 l/m 2,0 km/h (1 Bft) 0,00 h 0,57 h 2,2 km/h (1 Bft)
24.11.2010 05:00 13,7 C 4,6 C 0,0 UV-I 0,0 C 54 % 93 % 0 % 1003,9 hPa 0,1 l/m 3,6 km/h (1 Bft) 0,00 h 0,70 h 5,0 km/h (1 Bft)
24.11.2010 06:00 13,6 C 4,6 C 0,0 UV-I 0,0 C 54 % 93 % 0 % 1003,6 hPa 0,0 l/m 3,9 km/h (1 Bft) 0,00 h 0,00 h 3,9 km/h (1 Bft)
24.11.2010 07:00 13,6 C 4,4 C 0,0 UV-I 0,0 C 54 % 92 % 0 % 1003,7 hPa 0,0 l/m 3,8 km/h (1 Bft) 0,00 h 0,00 h 4,8 km/h (1 Bft)
24.11.2010 08:00 13,6 C 4,4 C 0,0 UV-I 0,0 C 53 % 92 % 0 % 1004,0 hPa 0,0 l/m 3,6 km/h (1 Bft) 0,00 h 0,20 h 4,2 km/h (1 Bft)
24.11.2010 09:00 13,6 C 4,7 C 0,0 UV-I 0,0 C 54 % 92 % 0 % 1004,2 hPa 0,0 l/m 4,9 km/h (1 Bft) 0,00 h 0,73 h 5,4 km/h (1 Bft)
24.11.2010 10:00 13,6 C 4,6 C 0,0 UV-I 0,0 C 54 % 93 % 0 % 1004,4 hPa 0,1 l/m 2,5 km/h (1 Bft) 0,00 h 0,13 h 3,4 km/h (1 Bft)
24.11.2010 11:00 13,8 C 5,0 C 0,0 UV-I 0,0 C 54 % 91 % 1 % 1004,6 hPa 0,0 l/m 3,1 km/h (1 Bft) 0,00 h 0,00 h 4,4 km/h (1 Bft)
24.11.2010 12:00 13,9 C 5,2 C 0,0 UV-I 0,2 C 53 % 91 % 7 % 1004,6 hPa 0,0 l/m 2,1 km/h (1 Bft) 0,00 h 0,00 h 3,2 km/h (1 Bft)
24.11.2010 13:00 14,2 C 6,0 C 0,0 UV-I 1,7 C 53 % 88 % 50 % 1004,9 hPa 0,0 l/m 3,7 km/h (1 Bft) 0,07 h 0,07 h 4,8 km/h (1 Bft)
24.11.2010 14:00 15,1 C 6,5 C 0,1 UV-I 2,6 C 50 % 82 % 75 % 1005,4 hPa 0,0 l/m 5,2 km/h (1 Bft) 0,83 h 0,00 h 5,3 km/h (1 Bft)
24.11.2010 15:00 15,3 C 6,0 C 0,0 UV-I 0,1 C 48 % 81 % 4 % 1005,2 hPa 0,0 l/m 2,9 km/h (1 Bft) 0,00 h 0,00 h 3,5 km/h (1 Bft)
24.11.2010 16:00 14,7 C 5,6 C 0,0 UV-I 0,0 C 49 % 83 % 0 % 1004,9 hPa 0,0 l/m 0,5 km/h (0 Bft) 0,00 h 0,00 h 0,5 km/h (0 Bft)
24.11.2010 17:00 14,2 C 4,7 C 0,0 UV-I 0,0 C 50 % 85 % 0 % 1004,8 hPa 0,1 l/m 2,7 km/h (1 Bft) 0,00 h 0,47 h 3,4 km/h (1 Bft)
24.11.2010 18:00 13,9 C 3,3 C 0,0 UV-I 0,0 C 51 % 87 % 0 % 1004,8 hPa 0,0 l/m 0,1 km/h (0 Bft) 0,00 h 0,03 h 0,2 km/h (0 Bft)
24.11.2010 19:00 13,7 C 2,8 C 0,0 UV-I 0,0 C 51 % 89 % 0 % 1004,5 hPa 0,0 l/m 0,2 km/h (0 Bft) 0,00 h 0,00 h 0,5 km/h (0 Bft)
24.11.2010 20:00 13,6 C 3,3 C 0,0 UV-I 0,0 C 51 % 90 % 0 % 1004,5 hPa 0,0 l/m 0,6 km/h (0 Bft) 0,00 h 0,07 h 1,2 km/h (1 Bft)
24.11.2010 21:00 13,6 C 3,4 C 0,0 UV-I 0,0 C 51 % 91 % 0 % 1004,9 hPa 0,0 l/m 3,0 km/h (1 Bft) 0,00 h 0,00 h 3,8 km/h (1 Bft)
24.11.2010 22:00 13,5 C 3,6 C 0,0 UV-I 0,0 C 51 % 91 % 0 % 1004,4 hPa 0,0 l/m 4,2 km/h (1 Bft) 0,00 h 0,00 h 5,0 km/h (1 Bft)
24.11.2010 23:00 13,5 C 3,5 C 0,0 UV-I 0,0 C 51 % 91 % 0 % 1004,0 hPa 0,0 l/m 2,2 km/h (1 Bft) 0,00 h 0,00 h 2,7 km/h (1 Bft)
25.11.2010 00:00 13,5 C 3,3 C 0,0 UV-I 0,0 C 51 % 91 % 0 % 1003,7 hPa 0,1 l/m 2,5 km/h (1 Bft) 0,00 h 0,47 h 3,0 km/h (1 Bft)
25.11.2010 01:00 13,4 C 2,8 C 0,0 UV-I 0,0 C 51 % 92 % 0 % 1003,3 hPa 0,0 l/m 2,6 km/h (1 Bft) 0,00 h 0,37 h 3,1 km/h (1 Bft)
25.11.2010 02:00 13,3 C 2,9 C 0,0 UV-I 0,0 C 52 % 92 % 0 % 1003,0 hPa 0,2 l/m 1,1 km/h (1 Bft) 0,00 h 0,80 h 2,3 km/h (1 Bft)
25.11.2010 03:00 13,3 C 3,2 C 0,0 UV-I 0,0 C 52 % 93 % 0 % 1002,6 hPa 0,1 l/m 1,9 km/h (1 Bft) 0,00 h 0,83 h 3,7 km/h (1 Bft)
25.11.2010 04:00 13,4 C 3,2 C 0,0 UV-I 0,0 C 52 % 92 % 0 % 1002,3 hPa 0,2 l/m 3,2 km/h (1 Bft) 0,00 h 1,00 h 4,1 km/h (1 Bft)
25.11.2010 05:00 13,4 C 3,2 C 0,0 UV-I 0,0 C 52 % 92 % 0 % 1002,0 hPa 0,0 l/m 2,6 km/h (1 Bft) 0,00 h 0,20 h 2,9 km/h (1 Bft)
25.11.2010 06:00 13,2 C 2,9 C 0,0 UV-I 0,0 C 52 % 92 % 0 % 1001,8 hPa 0,1 l/m 2,7 km/h (1 Bft) 0,00 h 0,50 h 4,3 km/h (1 Bft)
25.11.2010 07:00 13,2 C 2,8 C 0,0 UV-I 0,0 C 52 % 93 % 0 % 1001,7 hPa 0,0 l/m 0,9 km/h (0 Bft) 0,00 h 0,00 h 1,1 km/h (1 Bft)
25.11.2010 08:00 13,2 C 2,9 C 0,0 UV-I 0,0 C 52 % 93 % 0 % 1001,5 hPa 0,0 l/m 0,4 km/h (0 Bft) 0,00 h 0,00 h 0,5 km/h (0 Bft)
25.11.2010 09:00 13,1 C 2,8 C 0,0 UV-I 0,0 C 52 % 92 % 0 % 1001,5 hPa 0,0 l/m 2,7 km/h (1 Bft) 0,00 h 0,00 h 2,8 km/h (1 Bft)
25.11.2010 10:00 13,1 C 2,8 C 0,0 UV-I 0,0 C 51 % 92 % 0 % 1001,5 hPa 0,0 l/m 3,7 km/h (1 Bft) 0,00 h 0,00 h 5,5 km/h (1 Bft)
25.11.2010 11:00 13,1 C 3,0 C 0,0 UV-I 0,0 C 51 % 91 % 0 % 1001,5 hPa 0,0 l/m 2,8 km/h (1 Bft) 0,00 h 0,00 h 3,8 km/h (1 Bft)
25.11.2010 12:00 13,2 C 3,2 C 0,0 UV-I 0,0 C 51 % 91 % 0 % 1001,1 hPa 0,0 l/m 2,4 km/h (1 Bft) 0,00 h 0,00 h 4,1 km/h (1 Bft)
25.11.2010 13:00 13,3 C 3,2 C 0,0 UV-I 0,0 C 50 % 90 % 0 % 1001,0 hPa 0,0 l/m 1,8 km/h (1 Bft) 0,00 h 0,00 h 2,7 km/h (1 Bft)
25.11.2010 14:00 13,4 C 3,4 C 0,0 UV-I 0,0 C 50 % 90 % 0 % 1000,7 hPa 0,0 l/m 0,9 km/h (0 Bft) 0,00 h 0,00 h 0,9 km/h (0 Bft)
25.11.2010 15:00 13,4 C 3,5 C 0,0 UV-I 0,0 C 50 % 90 % 0 % 1000,5 hPa 0,0 l/m 0,1 km/h (0 Bft) 0,00 h 0,00 h 0,1 km/h (0 Bft)
25.11.2010 16:00 13,4 C 3,2 C 0,0 UV-I 0,0 C 50 % 89 % 0 % 1000,2 hPa 0,0 l/m 0,0 km/h (0 Bft) 0,00 h 0,00 h 0,0 km/h (0 Bft)
25.11.2010 17:00 13,4 C 2,9 C 0,0 UV-I 0,0 C 50 % 89 % 0 % 1000,2 hPa 0,0 l/m 0,0 km/h (0 Bft) 0,00 h 0,00 h 0,0 km/h (0 Bft)
25.11.2010 18:00 13,2 C 2,8 C 0,0 UV-I 0,0 C 50 % 90 % 0 % 1000,2 hPa 0,0 l/m 0,0 km/h (0 Bft) 0,00 h 0,13 h 0,0 km/h (0 Bft)
25.11.2010 19:00 13,2 C 2,8 C 0,0 UV-I 0,0 C 50 % 90 % 0 % 1000,2 hPa 0,0 l/m 0,0 km/h (0 Bft) 0,00 h 0,53 h 0,0 km/h (0 Bft)
25.11.2010 20:00 13,2 C 2,8 C 0,0 UV-I 0,0 C 51 % 91 % 0 % 1000,4 hPa 0,1 l/m 0,1 km/h (0 Bft) 0,00 h 0,37 h 0,1 km/h (0 Bft)
25.11.2010 21:00 13,2 C 2,8 C 0,0 UV-I 0,0 C 51 % 91 % 0 % 1000,3 hPa 0,0 l/m 0,5 km/h (0 Bft) 0,00 h 0,07 h 1,7 km/h (1 Bft)
25.11.2010 22:00 13,1 C 2,1 C 0,0 UV-I 0,0 C 51 % 91 % 0 % 1000,6 hPa 0,1 l/m 4,3 km/h (1 Bft) 0,00 h 0,93 h 4,1 km/h (1 Bft)
25.11.2010 23:00 13,2 C 1,7 C 0,0 UV-I 0,0 C 51 % 92 % 0 % 1000,9 hPa 0,1 l/m 0,9 km/h (0 Bft) 0,00 h 0,57 h 0,7 km/h (0 Bft)
26.11.2010 00:00 13,2 C 2,0 C 0,0 UV-I 0,0 C 51 % 93 % 0 % 1001,0 hPa 0,0 l/m 4,2 km/h (1 Bft) 0,00 h 0,23 h 5,0 km/h (1 Bft)
26.11.2010 01:00 13,2 C 2,0 C 0,0 UV-I 0,0 C 51 % 93 % 0 % 1001,0 hPa 0,0 l/m 4,5 km/h (1 Bft) 0,00 h 0,00 h 5,0 km/h (1 Bft)
26.11.2010 02:00 13,2 C 1,7 C 0,0 UV-I 0,0 C 51 % 93 % 0 % 1001,4 hPa 0,0 l/m 5,9 km/h (2 Bft) 0,00 h 0,57 h 6,2 km/h (2 Bft)
26.11.2010 03:00 13,1 C 0,8 C 0,0 UV-I 0,0 C 51 % 93 % 0 % 1001,9 hPa 0,0 l/m 1,7 km/h (1 Bft) 0,00 h 1,00 h 2,2 km/h (1 Bft)
26.11.2010 04:00 13,0 C 0,8 C 0,0 UV-I 0,0 C 50 % 94 % 0 % 1001,9 hPa 0,0 l/m 0,9 km/h (0 Bft) 0,00 h 0,13 h 1,3 km/h (1 Bft)
26.11.2010 05:00 13,0 C 0,7 C 0,0 UV-I 0,0 C 50 % 94 % 0 % 1002,4 hPa 0,0 l/m 2,0 km/h (1 Bft) 0,00 h 0,00 h 2,8 km/h (1 Bft)
26.11.2010 06:00 12,8 C 0,8 C 0,0 UV-I 0,0 C 50 % 94 % 0 % 1002,5 hPa 0,0 l/m 2,2 km/h (1 Bft) 0,00 h 0,00 h 2,3 km/h (1 Bft)
26.11.2010 07:00 12,8 C 0,6 C 0,0 UV-I 0,0 C 49 % 94 % 0 % 1002,7 hPa 0,0 l/m 3,2 km/h (1 Bft) 0,00 h 0,00 h 3,8 km/h (1 Bft)
26.11.2010 08:00 12,8 C 0,1 C 0,0 UV-I 0,0 C 49 % 93 % 0 % 1003,1 hPa 0,0 l/m 1,3 km/h (1 Bft) 0,00 h 0,00 h 2,3 km/h (1 Bft)
26.11.2010 09:00 12,8 C 0,2 C 0,0 UV-I 0,0 C 49 % 93 % 0 % 1003,6 hPa 0,0 l/m 1,4 km/h (1 Bft) 0,00 h 0,00 h 1,6 km/h (1 Bft)
26.11.2010 10:00 12,9 C 0,4 C 0,0 UV-I 0,7 C 49 % 93 % 21 % 1003,9 hPa 0,0 l/m 1,0 km/h (0 Bft) 0,17 h 0,00 h 2,0 km/h (1 Bft)
26.11.2010 11:00 13,1 C 0,6 C 0,0 UV-I 1,9 C 48 % 92 % 50 % 1004,2 hPa 0,0 l/m 0,9 km/h (0 Bft) 0,30 h 0,00 h 0,7 km/h (0 Bft)
26.11.2010 12:00 13,4 C 1,3 C 0,0 UV-I 4,7 C 48 % 92 % 99 % 1003,7 hPa 0,7 l/m 0,4 km/h (0 Bft) 1,00 h 0,00 h 0,6 km/h (0 Bft)
26.11.2010 13:00 13,7 C 1,5 C 0,0 UV-I 2,9 C 47 % 91 % 75 % 1003,6 hPa 0,3 l/m 0,7 km/h (0 Bft) 0,67 h 0,00 h 0,7 km/h (0 Bft)
26.11.2010 14:00 13,9 C 1,6 C 0,0 UV-I 0,7 C 46 % 90 % 18 % 1003,9 hPa 0,1 l/m 0,1 km/h (0 Bft) 0,13 h 0,00 h 0,0 km/h (0 Bft)
26.11.2010 15:00 13,7 C 1,1 C 0,0 UV-I 0,0 C 46 % 91 % 0 % 1003,3 hPa 0,0 l/m 0,1 km/h (0 Bft) 0,00 h 0,00 h 0,1 km/h (0 Bft)
26.11.2010 16:00 13,3 C 0,5 C 0,0 UV-I 0,0 C 47 % 91 % 0 % 1003,1 hPa 0,0 l/m 0,1 km/h (0 Bft) 0,00 h 0,00 h 0,1 km/h (0 Bft)
26.11.2010 17:00 12,9 C 0,2 C 0,0 UV-I 0,0 C 48 % 92 % 0 % 1003,1 hPa 0,0 l/m 0,0 km/h (0 Bft) 0,00 h 0,00 h 0,0 km/h (0 Bft)
26.11.2010 18:00 12,7 C -0,7 C 0,0 UV-I 0,0 C 47 % 92 % 0 % 1003,0 hPa 0,0 l/m 0,0 km/h (0 Bft) 0,00 h 0,00 h 0,1 km/h (0 Bft)
26.11.2010 19:00 12,5 C -0,9 C 0,0 UV-I 0,0 C 47 % 92 % 0 % 1003,1 hPa 0,0 l/m 0,4 km/h (0 Bft) 0,00 h 0,00 h 0,7 km/h (0 Bft)
26.11.2010 20:00 12,4 C -1,1 C 0,0 UV-I 0,0 C 47 % 93 % 0 % 1002,9 hPa 0,0 l/m 0,3 km/h (0 Bft) 0,00 h 0,00 h 0,6 km/h (0 Bft)
26.11.2010 21:00 12,4 C -0,9 C 0,0 UV-I 0,0 C 47 % 93 % 0 % 1003,0 hPa 0,0 l/m 0,6 km/h (0 Bft) 0,00 h 0,00 h 1,4 km/h (1 Bft)
26.11.2010 22:00 12,4 C -0,8 C 0,0 UV-I 0,0 C 47 % 93 % 0 % 1003,0 hPa 0,0 l/m 0,4 km/h (0 Bft) 0,00 h 0,00 h 1,1 km/h (1 Bft)
26.11.2010 23:00 12,2 C -1,3 C 0,0 UV-I 0,0 C 47 % 93 % 0 % 1002,9 hPa 0,0 l/m 1,2 km/h (1 Bft) 0,00 h 0,00 h 1,7 km/h (1 Bft)
27.11.2010 00:00 12,2 C -1,2 C 0,0 UV-I 0,0 C 47 % 93 % 0 % 1003,0 hPa 0,0 l/m 1,1 km/h (1 Bft) 0,00 h 0,00 h 1,5 km/h (1 Bft)
27.11.2010 01:00 12,2 C -1,3 C 0,0 UV-I 0,0 C 47 % 93 % 0 % 1003,1 hPa 0,0 l/m 1,2 km/h (1 Bft) 0,00 h 0,00 h 2,0 km/h (1 Bft)
27.11.2010 02:00 12,1 C -1,2 C 0,0 UV-I 0,0 C 47 % 93 % 0 % 1002,9 hPa 0,0 l/m 2,5 km/h (1 Bft) 0,00 h 0,00 h 3,3 km/h (1 Bft)
27.11.2010 03:00 12,2 C -0,8 C 0,0 UV-I 0,0 C 47 % 94 % 0 % 1002,7 hPa 0,0 l/m 1,5 km/h (1 Bft) 0,00 h 0,00 h 2,3 km/h (1 Bft)
27.11.2010 04:00 12,2 C -0,6 C 0,0 UV-I 0,0 C 47 % 94 % 0 % 1002,5 hPa 0,0 l/m 1,3 km/h (1 Bft) 0,00 h 0,00 h 1,7 km/h (1 Bft)
27.11.2010 05:00 12,2 C -0,4 C 0,0 UV-I 0,0 C 47 % 94 % 0 % 1002,3 hPa 0,0 l/m 1,1 km/h (1 Bft) 0,00 h 0,00 h 1,8 km/h (1 Bft)
27.11.2010 06:00 12,1 C -0,4 C 0,0 UV-I 0,0 C 47 % 94 % 0 % 1002,2 hPa 0,0 l/m 2,3 km/h (1 Bft) 0,00 h 0,00 h 3,7 km/h (1 Bft)
27.11.2010 07:00 12,1 C -0,6 C 0,0 UV-I 0,0 C 47 % 94 % 0 % 1002,3 hPa 0,0 l/m 2,0 km/h (1 Bft) 0,00 h 0,00 h 3,0 km/h (1 Bft)
27.11.2010 08:00 11,9 C -0,7 C 0,0 UV-I 0,0 C 47 % 94 % 0 % 1002,5 hPa 0,0 l/m 2,2 km/h (1 Bft) 0,00 h 0,00 h 3,0 km/h (1 Bft)
27.11.2010 09:00 12,0 C -0,6 C 0,0 UV-I 0,0 C 47 % 93 % 0 % 1002,8 hPa 0,0 l/m 2,2 km/h (1 Bft) 0,00 h 0,07 h 2,6 km/h (1 Bft)
27.11.2010 10:00 12,0 C -0,1 C 0,0 UV-I 0,0 C 47 % 93 % 0 % 1002,7 hPa 0,0 l/m 3,4 km/h (1 Bft) 0,00 h 0,27 h 4,4 km/h (1 Bft)
27.11.2010 11:00 12,1 C 0,4 C 0,0 UV-I 0,0 C 46 % 93 % 0 % 1002,9 hPa 0,0 l/m 4,0 km/h (1 Bft) 0,00 h 0,00 h 5,8 km/h (2 Bft)
27.11.2010 12:00 12,3 C 0,8 C 0,0 UV-I 0,1 C 46 % 93 % 2 % 1002,8 hPa 0,0 l/m 2,7 km/h (1 Bft) 0,00 h 0,00 h 3,9 km/h (1 Bft)
27.11.2010 13:00 12,4 C 1,2 C 0,0 UV-I 0,3 C 46 % 92 % 8 % 1002,8 hPa 0,1 l/m 4,9 km/h (1 Bft) 0,00 h 0,00 h 6,3 km/h (2 Bft)
27.11.2010 14:00 12,8 C 1,6 C 0,1 UV-I 1,1 C 46 % 91 % 30 % 1002,8 hPa 0,0 l/m 3,4 km/h (1 Bft) 0,23 h 0,00 h 4,3 km/h (1 Bft)
27.11.2010 15:00 12,9 C 1,5 C 0,0 UV-I 0,0 C 44 % 90 % 0 % 1002,9 hPa 0,1 l/m 4,1 km/h (1 Bft) 0,00 h 0,00 h 3,8 km/h (1 Bft)
27.11.2010 16:00 12,3 C 0,9 C 0,0 UV-I 0,0 C 44 % 89 % 0 % 1002,4 hPa 0,0 l/m 0,2 km/h (0 Bft) 0,00 h 0,00 h 0,7 km/h (0 Bft)
27.11.2010 17:00 11,8 C 0,7 C 0,0 UV-I 0,0 C 46 % 90 % 0 % 1002,3 hPa 0,0 l/m 0,8 km/h (0 Bft) 0,00 h 0,17 h 1,1 km/h (1 Bft)
27.11.2010 18:00 11,6 C 0,8 C 0,0 UV-I 0,0 C 46 % 90 % 0 % 1002,3 hPa 0,0 l/m 3,7 km/h (1 Bft) 0,00 h 0,07 h 5,0 km/h (1 Bft)
27.11.2010 19:00 11,6 C 0,5 C 0,0 UV-I 0,0 C 46 % 90 % 0 % 1002,5 hPa 0,0 l/m 0,6 km/h (0 Bft) 0,00 h 0,00 h 0,5 km/h (0 Bft)
27.11.2010 20:00 11,4 C -0,0 C 0,0 UV-I 0,0 C 46 % 90 % 0 % 1002,7 hPa 0,0 l/m 0,9 km/h (0 Bft) 0,00 h 0,00 h 1,2 km/h (1 Bft)
27.11.2010 21:00 11,2 C -0,1 C 0,0 UV-I 0,0 C 46 % 90 % 0 % 1002,6 hPa 0,0 l/m 2,1 km/h (1 Bft) 0,00 h 0,00 h 3,5 km/h (1 Bft)
27.11.2010 22:00 11,2 C -0,2 C 0,0 UV-I 0,0 C 46 % 90 % 0 % 1002,7 hPa 0,0 l/m 1,9 km/h (1 Bft) 0,00 h 0,00 h 2,1 km/h (1 Bft)
27.11.2010 23:00 11,1 C -0,7 C 0,0 UV-I 0,0 C 46 % 90 % 0 % 1002,9 hPa 0,0 l/m 0,9 km/h (0 Bft) 0,00 h 0,00 h 1,6 km/h (1 Bft)
28.11.2010 00:00 10,9 C -0,9 C 0,0 UV-I 0,0 C 46 % 90 % 0 % 1002,9 hPa 0,0 l/m 1,4 km/h (1 Bft) 0,00 h 0,00 h 1,7 km/h (1 Bft)
28.11.2010 01:00 10,8 C -1,2 C 0,0 UV-I 0,0 C 46 % 90 % 0 % 1002,9 hPa 0,0 l/m 0,6 km/h (0 Bft) 0,00 h 0,00 h 0,5 km/h (0 Bft)
28.11.2010 02:00 10,8 C -2,0 C 0,0 UV-I 0,0 C 45 % 91 % 0 % 1003,1 hPa 0,0 l/m 0,0 km/h (0 Bft) 0,00 h 0,27 h 0,0 km/h (0 Bft)
28.11.2010 03:00 10,6 C -2,7 C 0,0 UV-I 0,0 C 45 % 91 % 0 % 1003,0 hPa 0,0 l/m 0,0 km/h (0 Bft) 0,00 h 0,00 h 0,0 km/h (0 Bft)
28.11.2010 04:00 10,5 C -3,2 C 0,0 UV-I 0,0 C 45 % 92 % 0 % 1003,2 hPa 0,0 l/m 0,0 km/h (0 Bft) 0,00 h 0,20 h 0,0 km/h (0 Bft)
28.11.2010 05:00 10,4 C -4,0 C 0,0 UV-I 0,0 C 44 % 91 % 0 % 1003,0 hPa 0,0 l/m 0,0 km/h (0 Bft) 0,00 h 0,07 h 0,0 km/h (0 Bft)
28.11.2010 06:00 10,2 C -4,5 C 0,0 UV-I 0,0 C 44 % 92 % 0 % 1002,8 hPa 0,0 l/m 0,0 km/h (0 Bft) 0,00 h 0,10 h 0,0 km/h (0 Bft)
28.11.2010 07:00 10,0 C -4,9 C 0,0 UV-I 0,0 C 43 % 92 % 0 % 1003,1 hPa 0,0 l/m 0,0 km/h (0 Bft) 0,00 h 0,23 h 0,0 km/h (0 Bft)
28.11.2010 08:00 9,9 C -4,9 C 0,0 UV-I 0,0 C 43 % 92 % 0 % 1003,3 hPa 0,0 l/m 0,0 km/h (0 Bft) 0,00 h 0,03 h 0,0 km/h (0 Bft)
28.11.2010 09:00 10,0 C -3,9 C 0,0 UV-I 1,5 C 43 % 93 % 36 % 1003,6 hPa 0,0 l/m 0,0 km/h (0 Bft) 0,40 h 0,00 h 0,0 km/h (0 Bft)
28.11.2010 10:00 10,4 C -1,8 C 0,0 UV-I 5,9 C 44 % 93 % 100 % 1003,9 hPa 0,0 l/m 0,5 km/h (0 Bft) 1,00 h 0,13 h 0,8 km/h (0 Bft)
28.11.2010 11:00 10,8 C 0,0 C 0,0 UV-I 5,4 C 44 % 89 % 100 % 1004,2 hPa 0,0 l/m 2,7 km/h (1 Bft) 1,00 h 0,00 h 3,5 km/h (1 Bft)
28.11.2010 12:00 11,2 C 0,7 C 0,0 UV-I 2,6 C 44 % 86 % 57 % 1004,2 hPa 0,0 l/m 1,9 km/h (1 Bft) 0,47 h 0,00 h 2,7 km/h (1 Bft)
28.11.2010 13:00 11,5 C 0,8 C 0,0 UV-I 1,4 C 43 % 85 % 36 % 1004,5 hPa 0,0 l/m 2,3 km/h (1 Bft) 0,30 h 0,00 h 3,1 km/h (1 Bft)
28.11.2010 14:00 12,3 C 1,0 C 0,0 UV-I 1,2 C 42 % 82 % 30 % 1004,9 hPa 0,0 l/m 0,6 km/h (0 Bft) 0,20 h 0,00 h 0,6 km/h (0 Bft)
28.11.2010 15:00 12,1 C 0,7 C 0,0 UV-I 0,1 C 41 % 82 % 4 % 1004,1 hPa 0,0 l/m 0,3 km/h (0 Bft) 0,00 h 0,00 h 1,1 km/h (1 Bft)
28.11.2010 16:00 11,7 C -0,1 C 0,0 UV-I 0,0 C 42 % 83 % 0 % 1003,5 hPa 0,0 l/m 0,0 km/h (0 Bft) 0,00 h 0,00 h 0,0 km/h (0 Bft)
28.11.2010 17:00 11,3 C -0,9 C 0,0 UV-I 0,0 C 43 % 84 % 0 % 1003,4 hPa 0,0 l/m 0,0 km/h (0 Bft) 0,00 h 0,00 h 0,1 km/h (0 Bft)
28.11.2010 18:00 11,0 C -1,6 C 0,0 UV-I 0,0 C 43 % 86 % 0 % 1003,4 hPa 0,0 l/m 0,1 km/h (0 Bft) 0,00 h 0,03 h 0,3 km/h (0 Bft)
28.11.2010 19:00 11,0 C -1,7 C 0,0 UV-I 0,0 C 44 % 88 % 0 % 1003,4 hPa 0,0 l/m 0,9 km/h (0 Bft) 0,00 h 0,07 h 1,3 km/h (1 Bft)
28.11.2010 20:00 10,8 C -2,1 C 0,0 UV-I 0,0 C 44 % 89 % 0 % 1003,6 hPa 0,0 l/m 1,8 km/h (1 Bft) 0,00 h 0,03 h 2,9 km/h (1 Bft)
28.11.2010 21:00 10,8 C -2,1 C 0,0 UV-I 0,0 C 44 % 89 % 0 % 1003,4 hPa 0,0 l/m 5,8 km/h (1 Bft) 0,00 h 0,00 h 5,6 km/h (1 Bft)
28.11.2010 22:00 10,9 C -1,7 C 0,0 UV-I 0,0 C 44 % 90 % 0 % 1003,4 hPa 0,0 l/m 4,7 km/h (1 Bft) 0,00 h 0,00 h 4,5 km/h (1 Bft)
28.11.2010 23:00 11,1 C -1,5 C 0,0 UV-I 0,0 C 44 % 90 % 0 % 1003,4 hPa 0,0 l/m 3,7 km/h (1 Bft) 0,00 h 0,00 h 4,1 km/h (1 Bft)
Min-Datum _ 28.11.10 28.11.10 22.11.10 22.11.10 28.11.10 22.11.10 22.11.10 25.11.10 - 23.11.10 - - 22.11.10
_ Min-Zeit 08:20 07:56 00:00 00:00 14:18 15:52 00:00 15:26 - 00:44 - - 00:02
Minimum _ 9,8 C -5,1 C 0,0 UV-I 0,0 C 41 % 77 % 0 % 1000,1 hPa - 0,0 km/h (0 Bft) - - 0,0 km/h (0 Bft)
Max-Datum _ 24.11.10 24.11.10 22.11.10 28.11.10 22.11.10 26.11.10 24.11.10 22.11.10 26.11.10 22.11.10 24.11.10 23.11.10 22.11.10
_ Max-Zeit 15:00 14:06 12:12 10:38 09:28 03:40 14:22 00:06 12:08 13:46 13:56 02:10 15:46
Maximum _ 15,6 C 6,7 C 5,0 UV-I 6,8 C 54 % 94 % 100 % 1006,2 hPa 0,7 l/m 20,9 km/h
S (4 Bft)
0,03 h 0,03 h 38,6 km/h
S (5 Bft)
Durchschnitt _ 13,1 C 2,3 C 0,1 UV-I 0,2 C 49 % 90 % 5 % 1003,2 hPa #2,9 l/m 3,3 km/h (1 Bft) #6:46 h #17:26 h 3,9 km/h (1 Bft)
© 2012 W. Hausmann